Time,TemperatureF,DewpointF,PressureIn,WindDirection,WindDirectionDegrees,WindSpeedMPH,WindSpeedGustMPH,Humidity,HourlyPrecipIn,Conditions,Clouds,dailyrainin,SoftwareType,DateUTC
2013-05-16 05:30:00,61.3,59.3,30.07,SE,135,0.0,0.0,93,0.00,,FEW095,0.00,VWS V14.01,2013-05-16 09:30:00,
2013-05-16 06:02:00,60.5,58.8,30.07,South,169,0.0,0.0,94,0.00,,FEW095,0.00,VWS V14.01,2013-05-16 10:02:00,
2013-05-16 06:05:00,60.4,58.7,30.07,South,169,0.0,0.0,94,0.00,,FEW095,0.00,VWS V14.01,2013-05-16 10:05:00,
2013-05-16 06:11:00,60.3,58.9,30.07,South,169,0.0,0.0,95,0.00,,FEW095,0.00,VWS V14.01,2013-05-16 10:11:00,
2013-05-16 06:12:00,60.3,58.9,30.07,South,169,0.0,0.0,95,0.00,,FEW095,0.00,VWS V14.01,2013-05-16 10:12:00,
2013-05-16 06:17:00,60.5,59.1,30.07,South,169,0.0,0.0,95,0.00,,FEW095,0.00,VWS V14.01,2013-05-16 10:17:00,
2013-05-16 06:20:00,60.4,59.0,30.08,South,169,0.0,0.0,95,0.00,,FEW095,0.00,VWS V14.01,2013-05-16 10:20:00,
2013-05-16 06:25:00,60.1,58.7,30.08,South,169,0.0,0.0,95,0.00,,FEW095,0.00,VWS V14.01,2013-05-16 10:25:00,
2013-05-16 06:30:00,59.9,58.5,30.08,South,169,0.0,0.0,95,0.00,,FEW095,0.00,VWS V14.01,2013-05-16 10:30:00,
2013-05-16 06:35:00,59.9,58.5,30.08,South,169,0.0,0.0,95,0.00,,FEW095,0.00,VWS V14.01,2013-05-16 10:35:00,
2013-05-16 06:40:00,59.9,58.5,30.09,South,169,0.0,0.0,95,0.00,,FEW095,0.00,VWS V14.01,2013-05-16 10:40:00,
2013-05-16 06:45:00,59.8,58.4,30.09,South,169,0.0,0.0,95,0.00,,FEW095,0.00,VWS V14.01,2013-05-16 10:45:00,
2013-05-16 06:50:00,60.0,58.9,30.09,South,169,0.0,0.0,96,0.00,,FEW095,0.00,VWS V14.01,2013-05-16 10:50:00,
2013-05-16 06:55:00,60.4,59.3,30.09,South,169,0.0,0.0,96,0.00,,FEW095,0.00,VWS V14.01,2013-05-16 10:55:00,
2013-05-16 07:00:00,60.3,59.2,30.09,South,169,0.0,0.0,96,0.00,,FEW095,0.00,VWS V14.01,2013-05-16 11:00:00,
2013-05-16 07:05:00,60.2,59.1,30.10,South,169,0.0,0.0,96,0.00,,FEW095,0.00,VWS V14.01,2013-05-16 11:05:00,
2013-05-16 07:10:00,60.7,59.6,30.09,South,169,0.0,0.0,96,0.00,,FEW095,0.00,VWS V14.01,2013-05-16 11:10:00,
2013-05-16 07:15:00,61.1,60.0,30.10,South,169,0.0,0.0,96,0.00,,FEW095,0.00,VWS V14.01,2013-05-16 11:15:00,
2013-05-16 07:20:00,61.4,60.2,30.10,South,169,0.0,0.0,96,0.00,,FEW095,0.00,VWS V14.01,2013-05-16 11:20:00,
2013-05-16 07:25:00,61.7,60.5,30.11,South,169,0.0,0.0,96,0.00,,FEW095,0.00,VWS V14.01,2013-05-16 11:25:00,
2013-05-16 07:30:00,62.0,60.8,30.11,South,169,0.0,0.0,96,0.00,,FEW095,0.00,VWS V14.01,2013-05-16 11:30:00,
2013-05-16 07:35:00,62.2,61.0,30.11,South,169,0.0,0.0,96,0.00,,FEW095,0.00,VWS V14.01,2013-05-16 11:35:00,
2013-05-16 07:40:00,62.5,61.3,30.11,South,169,0.0,0.0,96,0.00,,FEW095,0.00,VWS V14.01,2013-05-16 11:40:00,
2013-05-16 07:45:00,62.8,61.7,30.11,South,169,0.0,0.0,96,0.00,,FEW095,0.00,VWS V14.01,2013-05-16 11:45:00,
2013-05-16 07:50:00,63.2,62.0,30.12,South,169,0.0,0.0,96,0.00,,FEW095,0.00,VWS V14.01,2013-05-16 11:50:00,
2013-05-16 07:55:00,63.6,62.2,30.12,South,169,0.0,0.0,95,0.00,,FEW095,0.00,VWS V14.01,2013-05-16 11:55:00,
2013-05-16 08:00:00,64.0,62.5,30.12,South,169,0.0,0.0,95,0.00,,FEW095,0.00,VWS V14.01,2013-05-16 12:00:00,
2013-05-16 08:05:00,64.5,62.7,30.12,South,169,0.0,0.0,94,0.00,,FEW095,0.00,VWS V14.01,2013-05-16 12:05:00,
2013-05-16 08:10:00,65.2,63.4,30.12,South,169,0.0,0.0,94,0.00,,FEW095,0.00,VWS V14.01,2013-05-16 12:10:00,
2013-05-16 08:15:00,65.8,63.7,30.13,South,169,0.0,0.0,93,0.00,,FEW095,0.00,VWS V14.01,2013-05-16 12:15:00,
2013-05-16 08:20:00,66.6,64.2,30.13,South,169,0.0,0.0,92,0.00,,FEW095,0.00,VWS V14.01,2013-05-16 12:20:00,
2013-05-16 08:25:00,67.3,64.3,30.13,SSW,198,0.0,4.0,90,0.00,,FEW095,0.00,VWS V14.01,2013-05-16 12:25:00,
2013-05-16 08:30:00,67.9,64.2,30.13,South,191,0.0,0.0,88,0.00,,FEW095,0.00,VWS V14.01,2013-05-16 12:30:00,
2013-05-16 08:35:00,68.7,64.3,30.13,South,190,1.0,4.0,86,0.00,,FEW095,0.00,VWS V14.01,2013-05-16 12:35:00,
2013-05-16 08:40:00,69.5,64.8,30.13,South,180,0.0,4.0,85,0.00,,FEW095,0.00,VWS V14.01,2013-05-16 12:40:00,
2013-05-16 08:46:00,70.0,64.6,30.13,SW,215,2.0,6.0,83,0.00,,FEW095,0.00,VWS V14.01,2013-05-16 12:46:00,
2013-05-16 08:51:00,70.5,64.4,30.14,SSW,194,2.0,7.0,81,0.00,,FEW095,0.00,VWS V14.01,2013-05-16 12:51:00,
2013-05-16 08:56:00,71.0,64.9,30.14,South,187,3.0,7.0,81,0.00,,FEW095,0.00,VWS V14.01,2013-05-16 12:56:00,
2013-05-16 09:01:00,71.6,64.4,30.14,SSE,157,6.0,7.0,78,0.00,,FEW095,0.00,VWS V14.01,2013-05-16 13:01:00,
2013-05-16 09:06:00,72.1,64.5,30.14,South,177,5.0,9.0,77,0.00,,FEW095,0.00,VWS V14.01,2013-05-16 13:06:00,
2013-05-16 09:11:00,72.4,64.0,30.14,South,175,5.0,10.0,75,0.00,,FEW095,0.00,VWS V14.01,2013-05-16 13:11:00,
2013-05-16 09:16:00,73.0,64.2,30.14,SSW,199,6.0,10.0,74,0.00,,FEW095,0.00,VWS V14.01,2013-05-16 13:16:00,
2013-05-16 09:21:00,73.3,64.1,30.14,South,186,5.0,10.0,73,0.00,,FEW095,0.00,VWS V14.01,2013-05-16 13:21:00,
2013-05-16 09:26:00,74.1,64.9,30.14,South,172,6.0,10.0,73,0.00,,FEW095,0.00,VWS V14.01,2013-05-16 13:26:00,
2013-05-16 09:31:00,74.1,64.5,30.14,SSE,154,7.0,9.0,72,0.00,,FEW095,0.00,VWS V14.01,2013-05-16 13:31:00,
2013-05-16 09:36:00,74.7,64.7,30.14,SSW,205,0.0,9.0,71,0.00,,FEW095,0.00,VWS V14.01,2013-05-16 13:36:00,
2013-05-16 09:41:00,74.9,64.5,30.14,SSW,197,7.0,10.0,70,0.00,,FEW095,0.00,VWS V14.01,2013-05-16 13:41:00,
2013-05-16 09:46:00,75.2,64.8,30.14,South,182,7.0,12.0,70,0.00,,FEW095,0.00,VWS V14.01,2013-05-16 13:46:00,
2013-05-16 09:51:00,75.6,65.5,30.14,South,177,6.0,12.0,71,0.00,,FEW095,0.00,VWS V14.01,2013-05-16 13:51:00,
2013-05-16 09:56:00,75.7,65.2,30.14,South,191,5.0,12.0,70,0.00,,FEW095,0.00,VWS V14.01,2013-05-16 13:56:00,
2013-05-16 10:01:00,75.6,64.7,30.14,South,177,5.0,7.0,69,0.00,,FEW095,0.00,VWS V14.01,2013-05-16 14:01:00,
2013-05-16 10:06:00,75.5,65.0,30.14,SSW,200,3.0,9.0,70,0.00,,FEW095,0.00,VWS V14.01,2013-05-16 14:06:00,
2013-05-16 10:11:00,76.0,65.1,30.14,SSW,204,7.0,9.0,69,0.00,,FEW095,0.00,VWS V14.01,2013-05-16 14:11:00,
2013-05-16 10:16:00,76.4,65.1,30.14,SSE,151,6.0,9.0,68,0.00,,FEW095,0.00,VWS V14.01,2013-05-16 14:16:00,
2013-05-16 10:21:00,76.5,65.2,30.15,WNW,286,4.0,9.0,68,0.00,,FEW095,0.00,VWS V14.01,2013-05-16 14:21:00,
2013-05-16 10:26:00,77.3,65.1,30.14,SSE,154,4.0,9.0,66,0.00,,FEW095,0.00,VWS V14.01,2013-05-16 14:26:00,
2013-05-16 10:31:00,77.5,64.8,30.15,WSW,246,0.0,5.0,65,0.00,,FEW095,0.00,VWS V14.01,2013-05-16 14:31:00,
2013-05-16 10:36:00,77.9,65.2,30.15,South,186,2.0,8.0,65,0.00,,FEW095,0.00,VWS V14.01,2013-05-16 14:36:00,
2013-05-16 10:41:00,78.4,64.8,30.15,West,263,3.0,8.0,63,0.00,,FEW095,0.00,VWS V14.01,2013-05-16 14:41:00,
2013-05-16 10:46:00,78.2,65.0,30.15,SSW,209,3.0,8.0,64,0.00,,FEW095,0.00,VWS V14.01,2013-05-16 14:46:00,
2013-05-16 10:51:00,78.6,65.4,30.15,South,187,4.0,8.0,64,0.00,,FEW095,0.00,VWS V14.01,2013-05-16 14:51:00,
2013-05-16 10:56:00,78.6,64.0,30.15,SSW,207,0.0,8.0,61,0.00,,FEW095,0.00,VWS V14.01,2013-05-16 14:56:00,
2013-05-16 11:01:00,79.5,64.4,30.15,SSW,195,0.0,4.0,60,0.00,,FEW095,0.00,VWS V14.01,2013-05-16 15:01:00,
2013-05-16 11:06:00,79.1,64.5,30.15,South,171,1.0,7.0,61,0.00,,FEW095,0.00,VWS V14.01,2013-05-16 15:06:00,
2013-05-16 11:11:00,80.0,64.9,30.15,SSE,149,6.0,7.0,60,0.00,,FEW095,0.00,VWS V14.01,2013-05-16 15:11:00,
2013-05-16 11:16:00,80.6,65.4,30.15,SSW,200,0.0,7.0,60,0.00,,FEW095,0.00,VWS V14.01,2013-05-16 15:16:00,
2013-05-16 11:21:00,81.3,64.6,30.15,South,188,2.0,7.0,57,0.00,,FEW095,0.00,VWS V14.01,2013-05-16 15:21:00,
2013-05-16 11:26:00,80.4,64.3,30.15,South,187,0.0,7.0,58,0.00,,FEW095,0.00,VWS V14.01,2013-05-16 15:26:00,
2013-05-16 11:31:00,80.6,65.0,30.15,WSW,250,3.0,8.0,59,0.00,,FEW095,0.00,VWS V14.01,2013-05-16 15:31:00,
2013-05-16 11:36:00,81.6,65.4,30.15,NW,305,0.0,8.0,58,0.00,,FEW095,0.00,VWS V14.01,2013-05-16 15:36:00,
2013-05-16 11:41:00,82.1,65.4,30.15,NNE,15,0.0,8.0,57,0.00,,FEW095,0.00,VWS V14.01,2013-05-16 15:41:00,
2013-05-16 11:46:00,83.0,65.7,30.14,SE,128,0.0,8.0,56,0.00,,FEW095,0.00,VWS V14.01,2013-05-16 15:46:00,
2013-05-16 11:51:00,84.1,65.1,30.14,SW,214,0.0,8.0,53,0.00,,FEW095,0.00,VWS V14.01,2013-05-16 15:51:00,
2013-05-16 11:56:00,83.3,64.4,30.14,West,260,0.0,8.0,53,0.00,,FEW095,0.00,VWS V14.01,2013-05-16 15:56:00,
2013-05-16 12:01:00,83.6,64.1,30.14,SE,133,0.0,1.0,52,0.00,,FEW095,0.00,VWS V14.01,2013-05-16 16:01:00,
2013-05-16 12:06:00,83.2,62.7,30.14,SE,145,1.0,5.0,50,0.00,,FEW095,0.00,VWS V14.01,2013-05-16 16:06:00,
2013-05-16 12:11:00,83.4,63.4,30.14,ESE,112,0.0,6.0,51,0.00,,FEW095,0.00,VWS V14.01,2013-05-16 16:11:00,
2013-05-16 12:16:00,84.6,63.9,30.14,ESE,113,0.0,6.0,50,0.00,,FEW095,0.00,VWS V14.01,2013-05-16 16:16:00,
2013-05-16 12:21:00,83.9,62.1,30.14,SSE,150,0.0,6.0,48,0.00,,FEW095,0.00,VWS V14.01,2013-05-16 16:21:00,
2013-05-16 12:26:00,84.9,63.6,30.13,East,93,0.0,9.0,49,0.00,,FEW095,0.00,VWS V14.01,2013-05-16 16:26:00,
2013-05-16 12:32:00,85.6,64.3,30.13,SE,136,0.0,1.0,49,0.00,,FEW095,0.00,VWS V14.01,2013-05-16 16:32:00,
2013-05-16 12:37:00,86.0,62.8,30.13,SE,142,0.0,6.0,46,0.00,,FEW095,0.00,VWS V14.01,2013-05-16 16:37:00,
2013-05-16 12:42:00,85.5,63.6,30.13,ENE,67,1.0,6.0,48,0.00,,FEW095,0.00,VWS V14.01,2013-05-16 16:42:00,
2013-05-16 12:47:00,87.2,63.3,30.13,ENE,78,0.0,6.0,45,0.00,,FEW095,0.00,VWS V14.01,2013-05-16 16:47:00,
2013-05-16 12:52:00,86.8,63.6,30.12,ENE,78,0.0,6.0,46,0.00,,FEW095,0.00,VWS V14.01,2013-05-16 16:52:00,
2013-05-16 12:57:00,85.7,63.2,30.12,East,90,2.0,6.0,47,0.00,,FEW095,0.00,VWS V14.01,2013-05-16 16:57:00,
2013-05-16 13:02:00,87.6,63.0,30.12,ESE,102,0.0,5.0,44,0.00,,FEW095,0.00,VWS V14.01,2013-05-16 17:02:00,
2013-05-16 13:07:00,87.0,61.8,30.12,ENE,76,0.0,5.0,43,0.00,,FEW095,0.00,VWS V14.01,2013-05-16 17:07:00,
2013-05-16 13:12:00,87.3,62.1,30.11,ENE,78,1.0,5.0,43,0.00,,FEW095,0.00,VWS V14.01,2013-05-16 17:12:00,
2013-05-16 13:17:00,86.3,61.8,30.11,ENE,78,0.0,5.0,44,0.00,,FEW095,0.00,VWS V14.01,2013-05-16 17:17:00,
2013-05-16 13:22:00,85.5,61.8,30.11,East,80,0.0,5.0,45,0.00,,FEW095,0.00,VWS V14.01,2013-05-16 17:22:00,
2013-05-16 13:27:00,85.1,62.0,30.11,North,10,4.0,5.0,46,0.00,,FEW095,0.00,VWS V14.01,2013-05-16 17:27:00,
2013-05-16 13:32:00,86.4,62.6,30.11,NE,38,0.0,5.0,45,0.00,,FEW095,0.00,VWS V14.01,2013-05-16 17:32:00,
2013-05-16 13:37:00,87.7,63.8,30.10,East,87,0.0,5.0,45,0.00,,FEW095,0.00,VWS V14.01,2013-05-16 17:37:00,
2013-05-16 13:42:00,86.5,62.0,30.10,ENE,72,0.0,5.0,44,0.00,,FEW095,0.00,VWS V14.01,2013-05-16 17:42:00,
2013-05-16 13:47:00,87.3,62.7,30.10,ENE,71,0.0,5.0,44,0.00,,FEW095,0.00,VWS V14.01,2013-05-16 17:47:00,
2013-05-16 13:52:00,86.9,62.4,30.10,East,80,0.0,5.0,44,0.00,,FEW095,0.00,VWS V14.01,2013-05-16 17:52:00,
2013-05-16 13:57:00,86.0,62.2,30.10,East,80,0.0,5.0,45,0.00,,FEW095,0.00,VWS V14.01,2013-05-16 17:57:00,
2013-05-16 14:02:00,87.2,63.3,30.10,NE,51,0.0,0.0,45,0.00,,FEW095,0.00,VWS V14.01,2013-05-16 18:02:00,
2013-05-16 14:07:00,86.7,63.5,30.10,SSW,198,2.0,6.0,46,0.00,,FEW095,0.00,VWS V14.01,2013-05-16 18:07:00,
2013-05-16 14:12:00,86.1,63.5,30.09,ESE,119,4.0,9.0,47,0.00,,FEW095,0.00,VWS V14.01,2013-05-16 18:12:00,
2013-05-16 14:17:00,87.0,61.8,30.09,SW,226,5.0,9.0,43,0.00,,FEW095,0.00,VWS V14.01,2013-05-16 18:17:00,
2013-05-16 14:22:00,86.3,62.5,30.10,SSE,160,7.0,9.0,45,0.00,,FEW095,0.00,VWS V14.01,2013-05-16 18:22:00,
2013-05-16 14:27:00,86.9,61.1,30.09,SSW,200,3.0,9.0,42,0.00,,FEW095,0.00,VWS V14.01,2013-05-16 18:27:00,
2013-05-16 14:32:00,86.4,60.6,30.09,South,173,0.0,1.0,42,0.00,,FEW095,0.00,VWS V14.01,2013-05-16 18:32:00,
2013-05-16 14:37:00,86.4,60.6,30.08,NW,314,0.0,1.0,42,0.00,,FEW095,0.00,VWS V14.01,2013-05-16 18:37:00,
2013-05-16 14:42:00,88.4,62.4,30.08,ESE,116,0.0,1.0,42,0.00,,FEW095,0.00,VWS V14.01,2013-05-16 18:42:00,
2013-05-16 14:47:00,90.6,62.3,30.08,East,81,6.0,8.0,39,0.00,,FEW095,0.00,VWS V14.01,2013-05-16 18:47:00,
2013-05-16 14:52:00,90.8,61.7,30.08,ESE,115,1.0,8.0,38,0.00,,FEW095,0.00,VWS V14.01,2013-05-16 18:52:00,
2013-05-16 14:57:00,90.1,61.1,30.08,SE,143,8.0,11.0,38,0.00,,FEW095,0.00,VWS V14.01,2013-05-16 18:57:00,
2013-05-16 15:02:00,89.0,60.1,30.07,SSE,165,6.0,11.0,38,0.00,,FEW095,0.00,VWS V14.01,2013-05-16 19:02:00,
2013-05-16 15:07:00,88.2,59.4,30.07,ESE,118,5.0,14.0,38,0.00,,FEW095,0.00,VWS V14.01,2013-05-16 19:07:00,
2013-05-16 15:12:00,87.8,59.8,30.07,SSE,152,7.0,14.0,39,0.00,,FEW095,0.00,VWS V14.01,2013-05-16 19:12:00,
2013-05-16 15:17:00,87.1,59.2,30.07,SE,146,0.0,14.0,39,0.00,,FEW095,0.00,VWS V14.01,2013-05-16 19:17:00,
2013-05-16 15:22:00,88.1,59.3,30.07,SE,137,8.0,14.0,38,0.00,,FEW095,0.00,VWS V14.01,2013-05-16 19:22:00,
2013-05-16 15:27:00,88.7,58.3,30.06,SSE,154,8.0,14.0,36,0.00,,FEW095,0.00,VWS V14.01,2013-05-16 19:27:00,
2013-05-16 15:32:00,87.4,57.2,30.06,ESE,112,5.0,11.0,36,0.00,,FEW095,0.00,VWS V14.01,2013-05-16 19:32:00,
2013-05-16 15:37:00,87.9,57.6,30.06,South,169,0.0,11.0,36,0.00,,FEW095,0.00,VWS V14.01,2013-05-16 19:37:00,
2013-05-16 15:42:00,89.0,56.2,30.06,SSE,148,1.0,11.0,33,0.00,,FEW095,0.00,VWS V14.01,2013-05-16 19:42:00,
2013-05-16 15:47:00,90.2,58.1,30.06,SSE,168,5.0,11.0,34,0.00,,FEW095,0.00,VWS V14.01,2013-05-16 19:47:00,
2013-05-16 15:52:00,88.6,55.8,30.06,SE,135,0.0,11.0,33,0.00,,FEW095,0.00,VWS V14.01,2013-05-16 19:52:00,
2013-05-16 15:58:00,88.5,58.2,30.05,South,171,5.0,11.0,36,0.00,,FEW095,0.00,VWS V14.01,2013-05-16 19:58:00,
2013-05-16 16:03:00,88.6,57.5,30.05,East,89,0.0,5.0,35,0.00,,FEW095,0.00,VWS V14.01,2013-05-16 20:03:00,
2013-05-16 16:08:00,88.7,56.8,30.05,SSE,155,5.0,10.0,34,0.00,,FEW095,0.00,VWS V14.01,2013-05-16 20:08:00,
2013-05-16 16:13:00,90.0,57.9,30.05,ENE,76,0.0,10.0,34,0.00,,FEW095,0.00,VWS V14.01,2013-05-16 20:13:00,
2013-05-16 16:18:00,90.3,56.5,30.05,East,88,0.0,12.0,32,0.00,,FEW095,0.00,VWS V14.01,2013-05-16 20:18:00,
2013-05-16 16:23:00,90.7,60.1,30.04,SE,125,0.0,12.0,36,0.00,,FEW095,0.00,VWS V14.01,2013-05-16 20:23:00,
2013-05-16 16:28:00,89.5,59.8,30.04,SSE,153,6.0,13.0,37,0.00,,FEW095,0.00,VWS V14.01,2013-05-16 20:28:00,
2013-05-16 16:33:00,88.4,58.8,30.04,SE,131,9.0,10.0,37,0.00,,FEW095,0.00,VWS V14.01,2013-05-16 20:33:00,
2013-05-16 16:38:00,88.9,59.3,30.04,SE,144,7.0,10.0,37,0.00,,FEW095,0.00,VWS V14.01,2013-05-16 20:38:00,
2013-05-16 16:43:00,89.0,60.1,30.04,ENE,72,1.0,13.0,38,0.00,,FEW095,0.00,VWS V14.01,2013-05-16 20:43:00,
2013-05-16 16:48:00,88.9,60.0,30.03,SSE,168,2.0,13.0,38,0.00,,FEW095,0.00,VWS V14.01,2013-05-16 20:48:00,
2013-05-16 16:53:00,89.0,58.6,30.04,SE,135,0.0,13.0,36,0.00,,FEW095,0.00,VWS V14.01,2013-05-16 20:53:00,
2013-05-16 16:58:00,87.3,60.0,30.03,SSW,202,9.0,13.0,40,0.00,,FEW095,0.00,VWS V14.01,2013-05-16 20:58:00,
2013-05-16 17:03:00,87.7,60.4,30.03,ESE,122,8.0,12.0,40,0.00,,FEW095,0.00,VWS V14.01,2013-05-16 21:03:00,
2013-05-16 17:08:00,87.5,59.5,30.03,SSE,157,7.0,12.0,39,0.00,,FEW095,0.00,VWS V14.01,2013-05-16 21:08:00,
2013-05-16 17:13:00,86.4,59.2,30.03,SSE,159,1.0,12.0,40,0.00,,FEW095,0.00,VWS V14.01,2013-05-16 21:13:00,
2013-05-16 17:18:00,86.9,59.7,30.03,ESE,111,4.0,12.0,40,0.00,,FEW095,0.00,VWS V14.01,2013-05-16 21:18:00,
2013-05-16 17:23:00,86.1,59.7,30.02,SSE,161,6.0,12.0,41,0.00,,FEW095,0.00,VWS V14.01,2013-05-16 21:23:00,
2013-05-16 17:28:00,87.0,59.8,30.02,SSE,153,6.0,12.0,40,0.00,,FEW095,0.00,VWS V14.01,2013-05-16 21:28:00,
2013-05-16 17:33:00,86.0,60.3,30.02,SE,138,2.0,12.0,42,0.00,,FEW095,0.00,VWS V14.01,2013-05-16 21:33:00,
2013-05-16 17:38:00,85.5,60.5,30.02,SSE,156,8.0,12.0,43,0.00,,FEW095,0.00,VWS V14.01,2013-05-16 21:38:00,
2013-05-16 17:43:00,85.6,59.9,30.02,SE,130,0.0,12.0,42,0.00,,FEW095,0.00,VWS V14.01,2013-05-16 21:43:00,
2013-05-16 17:48:00,86.0,60.9,30.02,ESE,120,6.0,12.0,43,0.00,,FEW095,0.00,VWS V14.01,2013-05-16 21:48:00,
2013-05-16 17:53:00,85.4,60.4,30.02,ESE,121,2.0,12.0,43,0.00,,FEW095,0.00,VWS V14.01,2013-05-16 21:53:00,
2013-05-16 17:58:00,84.7,61.0,30.02,South,181,5.0,12.0,45,0.00,,FEW095,0.00,VWS V14.01,2013-05-16 21:58:00,
2013-05-16 18:03:00,84.6,61.6,30.02,SSE,153,5.0,6.0,46,0.00,,FEW095,0.00,VWS V14.01,2013-05-16 22:03:00,
2013-05-16 18:08:00,85.3,62.2,30.02,ENE,78,3.0,6.0,46,0.00,,FEW095,0.00,VWS V14.01,2013-05-16 22:08:00,
2013-05-16 18:13:00,85.8,61.4,30.02,East,97,0.0,6.0,44,0.00,,FEW095,0.00,VWS V14.01,2013-05-16 22:13:00,
2013-05-16 18:18:00,85.3,60.9,30.02,SSE,150,4.0,7.0,44,0.00,,FEW095,0.00,VWS V14.01,2013-05-16 22:18:00,
2013-05-16 18:23:00,85.4,61.0,30.02,SE,137,0.0,7.0,44,0.00,,FEW095,0.00,VWS V14.01,2013-05-16 22:23:00,
2013-05-16 18:28:00,86.3,61.2,30.02,SE,125,0.0,7.0,43,0.00,,FEW095,0.00,VWS V14.01,2013-05-16 22:28:00,
2013-05-16 18:33:00,85.9,61.5,30.02,South,173,0.0,7.0,44,0.00,,FEW095,0.00,VWS V14.01,2013-05-16 22:33:00,
2013-05-16 18:38:00,85.4,61.0,30.02,SSE,155,0.0,12.0,44,0.00,,FEW095,0.00,VWS V14.01,2013-05-16 22:38:00,
2013-05-16 18:43:00,85.1,61.4,30.02,South,174,1.0,12.0,45,0.00,,FEW095,0.00,VWS V14.01,2013-05-16 22:43:00,
2013-05-16 18:48:00,84.6,60.9,30.02,SSE,150,7.0,12.0,45,0.00,,FEW095,0.00,VWS V14.01,2013-05-16 22:48:00,
2013-05-16 18:53:00,84.1,61.1,30.02,SE,143,0.0,12.0,46,0.00,,FEW095,0.00,VWS V14.01,2013-05-16 22:53:00,
2013-05-16 18:58:00,84.2,61.2,30.01,SSE,161,5.0,12.0,46,0.00,,FEW095,0.00,VWS V14.01,2013-05-16 22:58:00,
2013-05-16 19:03:00,83.8,61.4,30.02,SSE,155,6.0,9.0,47,0.00,,FEW095,0.00,VWS V14.01,2013-05-16 23:03:00,
2013-05-16 19:08:00,83.8,61.4,30.02,SSE,159,0.0,9.0,47,0.00,,FEW095,0.00,VWS V14.01,2013-05-16 23:08:00,
2013-05-16 19:13:00,83.8,60.8,30.02,SSE,150,0.0,9.0,46,0.00,,FEW095,0.00,VWS V14.01,2013-05-16 23:13:00,
2013-05-16 19:18:00,83.8,61.4,30.02,East,100,0.0,9.0,47,0.00,,FEW095,0.00,VWS V14.01,2013-05-16 23:18:00,
2013-05-16 19:23:00,83.8,61.4,30.01,SE,142,0.0,9.0,47,0.00,,FEW095,0.00,VWS V14.01,2013-05-16 23:23:00,
2013-05-16 19:28:00,83.3,61.0,30.02,ESE,121,2.0,9.0,47,0.00,,FEW095,0.00,VWS V14.01,2013-05-16 23:28:00,
2013-05-16 19:34:00,82.8,59.9,30.01,SE,126,0.0,7.0,46,0.00,,FEW095,0.00,VWS V14.01,2013-05-16 23:34:00,
2013-05-16 19:39:00,82.5,60.8,30.02,ESE,121,0.0,7.0,48,0.00,,FEW095,0.00,VWS V14.01,2013-05-16 23:39:00,
2013-05-16 19:44:00,82.0,61.0,30.02,SSE,160,0.0,7.0,49,0.00,,FEW095,0.00,VWS V14.01,2013-05-16 23:44:00,
2013-05-16 19:49:00,81.7,60.7,30.02,SSE,160,0.0,7.0,49,0.00,,FEW095,0.00,VWS V14.01,2013-05-16 23:49:00,
2013-05-16 19:54:00,81.5,61.1,30.02,SSE,160,0.0,7.0,50,0.00,,FEW095,0.00,VWS V14.01,2013-05-16 23:54:00,
2013-05-16 19:59:00,81.1,60.2,30.02,SE,132,0.0,7.0,49,0.00,,FEW095,0.00,VWS V14.01,2013-05-16 23:59:00,
2013-05-16 20:04:00,80.9,60.0,30.03,SE,132,0.0,0.0,49,0.00,,FEW095,0.00,VWS V14.01,2013-05-17 00:04:00,
2013-05-16 20:09:00,80.6,62.4,30.03,East,100,2.0,12.0,54,0.00,,FEW095,0.00,VWS V14.01,2013-05-17 00:09:00,
2013-05-16 20:14:00,80.1,63.0,30.03,ESE,102,0.0,12.0,56,0.00,,FEW095,0.00,VWS V14.01,2013-05-17 00:14:00,
2013-05-16 20:19:00,79.7,63.6,30.04,ESE,103,1.0,12.0,58,0.00,,FEW095,0.00,VWS V14.01,2013-05-17 00:19:00,
2013-05-16 20:24:00,79.3,63.7,30.04,East,97,6.0,12.0,59,0.00,,FEW095,0.00,VWS V14.01,2013-05-17 00:24:00,
2013-05-16 20:29:00,78.7,63.7,30.04,ESE,102,6.0,12.0,60,0.00,,FEW095,0.00,VWS V14.01,2013-05-17 00:29:00,
2013-05-16 20:34:00,78.2,63.2,30.04,ESE,107,0.0,8.0,60,0.00,,FEW095,0.00,VWS V14.01,2013-05-17 00:34:00,
2013-05-16 20:39:00,77.7,62.7,30.04,SE,126,7.0,13.0,60,0.00,,FEW095,0.00,VWS V14.01,2013-05-17 00:39:00,
2013-05-16 20:44:00,77.4,62.4,30.04,ESE,122,2.0,13.0,60,0.00,,FEW095,0.00,VWS V14.01,2013-05-17 00:44:00,
2013-05-16 20:49:00,77.2,61.8,30.04,ESE,110,4.0,13.0,59,0.00,,FEW095,0.00,VWS V14.01,2013-05-17 00:49:00,
2013-05-16 20:54:00,76.9,62.0,30.04,ESE,114,5.0,13.0,60,0.00,,FEW095,0.00,VWS V14.01,2013-05-17 00:54:00,
2013-05-16 20:59:00,76.7,61.8,30.04,SE,138,7.0,13.0,60,0.00,,FEW095,0.00,VWS V14.01,2013-05-17 00:59:00,
2013-05-16 21:04:00,76.4,61.5,30.04,East,97,2.0,7.0,60,0.00,,FEW095,0.00,VWS V14.01,2013-05-17 01:04:00,
2013-05-16 21:09:00,76.2,60.8,30.04,ESE,110,8.0,10.0,59,0.00,,FEW095,0.00,VWS V14.01,2013-05-17 01:09:00,
2013-05-16 21:14:00,76.0,60.7,30.05,SE,129,2.0,10.0,59,0.00,,FEW095,0.00,VWS V14.01,2013-05-17 01:14:00,
2013-05-16 21:19:00,75.8,60.5,30.04,ESE,114,2.0,10.0,59,0.00,,FEW095,0.00,VWS V14.01,2013-05-17 01:19:00,
2013-05-16 21:24:00,75.6,60.8,30.05,East,96,0.0,10.0,60,0.00,,FEW095,0.00,VWS V14.01,2013-05-17 01:24:00,
2013-05-16 21:29:00,75.4,61.0,30.05,East,99,0.0,10.0,61,0.00,,FEW095,0.00,VWS V14.01,2013-05-17 01:29:00,
2013-05-16 21:34:00,75.1,61.2,30.05,ESE,105,0.0,4.0,62,0.00,,FEW095,0.00,VWS V14.01,2013-05-17 01:34:00,
2013-05-16 21:39:00,74.8,60.9,30.05,SE,133,2.0,7.0,62,0.00,,FEW095,0.00,VWS V14.01,2013-05-17 01:39:00,
2013-05-16 21:44:00,74.7,60.8,30.05,ESE,102,0.0,7.0,62,0.00,,FEW095,0.00,VWS V14.01,2013-05-17 01:44:00,
2013-05-16 21:49:00,74.6,61.2,30.06,East,91,4.0,7.0,63,0.00,,FEW095,0.00,VWS V14.01,2013-05-17 01:49:00,
2013-05-16 21:54:00,74.4,61.4,30.06,East,97,0.0,7.0,64,0.00,,FEW095,0.00,VWS V14.01,2013-05-17 01:54:00,
2013-05-16 21:59:00,74.2,61.2,30.06,ESE,106,0.0,7.0,64,0.00,,FEW095,0.00,VWS V14.01,2013-05-17 01:59:00,
2013-05-16 22:04:00,74.1,61.6,30.07,East,90,0.0,3.0,65,0.00,,FEW095,0.00,VWS V14.01,2013-05-17 02:04:00,
2013-05-16 22:09:00,74.0,61.5,30.07,East,96,0.0,3.0,65,0.00,,FEW095,0.00,VWS V14.01,2013-05-17 02:09:00,
2013-05-16 22:14:00,73.9,61.4,30.07,ESE,109,0.0,3.0,65,0.00,,FEW095,0.00,VWS V14.01,2013-05-17 02:14:00,
2013-05-16 22:19:00,73.9,61.4,30.07,ESE,122,0.0,3.0,65,0.00,,FEW095,0.00,VWS V14.01,2013-05-17 02:19:00,
2013-05-16 22:24:00,73.8,61.3,30.08,SE,129,0.0,3.0,65,0.00,,FEW095,0.00,VWS V14.01,2013-05-17 02:24:00,
2013-05-16 22:29:00,73.7,61.2,30.07,SE,138,0.0,5.0,65,0.00,,FEW095,0.00,VWS V14.01,2013-05-17 02:29:00,
2013-05-16 22:34:00,73.6,61.5,30.08,SE,136,0.0,0.0,66,0.00,,FEW095,0.00,VWS V14.01,2013-05-17 02:34:00,
2013-05-16 22:39:00,73.4,61.4,30.08,East,99,0.0,4.0,66,0.00,,FEW095,0.00,VWS V14.01,2013-05-17 02:39:00,
2013-05-16 22:44:00,73.3,61.3,30.08,ESE,105,0.0,4.0,66,0.00,,FEW095,0.00,VWS V14.01,2013-05-17 02:44:00,
2013-05-16 22:49:00,73.3,61.3,30.08,ESE,115,0.0,4.0,66,0.00,,FEW095,0.00,VWS V14.01,2013-05-17 02:49:00,
2013-05-16 22:54:00,73.3,61.3,30.08,SE,130,0.0,4.0,66,0.00,,FEW095,0.00,VWS V14.01,2013-05-17 02:54:00,
2013-05-16 22:59:00,73.2,61.6,30.08,SE,142,1.0,5.0,67,0.00,,FEW095,0.00,VWS V14.01,2013-05-17 02:59:00,
2013-05-16 23:04:00,73.2,61.6,30.08,SE,130,2.0,8.0,67,0.00,,FEW095,0.00,VWS V14.01,2013-05-17 03:04:00,
2013-05-16 23:09:00,73.3,61.7,30.07,SE,138,0.0,8.0,67,0.00,,FEW095,0.00,VWS V14.01,2013-05-17 03:09:00,
2013-05-16 23:14:00,73.2,61.6,30.07,SE,142,0.0,8.0,67,0.00,,FEW095,0.00,VWS V14.01,2013-05-17 03:14:00,
2013-05-16 23:20:00,73.2,62.0,30.08,ESE,117,8.0,12.0,68,0.00,,FEW095,0.00,VWS V14.01,2013-05-17 03:20:00,
2013-05-16 23:25:00,73.3,62.1,30.08,SE,144,9.0,12.0,68,0.00,,FEW095,0.00,VWS V14.01,2013-05-17 03:25:00,
2013-05-16 23:30:00,73.3,62.5,30.08,SE,142,0.0,12.0,69,0.00,,FEW095,0.00,VWS V14.01,2013-05-17 03:30:00,
2013-05-16 23:35:00,73.2,62.8,30.08,SSE,168,4.0,7.0,70,0.00,,FEW095,0.00,VWS V14.01,2013-05-17 03:35:00,
2013-05-16 23:40:00,73.1,63.2,30.08,SE,132,6.0,10.0,71,0.00,,FEW095,0.00,VWS V14.01,2013-05-17 03:40:00,
2013-05-16 23:45:00,73.1,63.2,30.08,SSE,147,9.0,12.0,71,0.00,,FEW095,0.00,VWS V14.01,2013-05-17 03:45:00,
2013-05-16 23:50:00,73.0,63.5,30.08,SE,144,4.0,12.0,72,0.00,,FEW095,0.00,VWS V14.01,2013-05-17 03:50:00,
2013-05-16 23:55:00,73.0,63.5,30.08,SE,128,6.0,12.0,72,0.00,,FEW095,0.00,VWS V14.01,2013-05-17 03:55:00,